When you browse on this site, cookies collect data to enhance your experience and personalize the content and advertising you see.
Visit our Privacy Policy to learn more. By continuing to use the site, you agree to this use of cookies and data.
  • In Austria
  • List of Countries
  • For 7 days
  • Water Temperature
  • Weather Map
  • News
  • Weather Widgets
  • user-avatar
    Login

    Hourly Weather Quito

    Today, 15 December, Sunday

    Time Temperature Precipitation Wind Pressure Humidity
    00:00 +16°C° 0.9 mm 0 mps 622 mmHg 91%
    01:00 +16°C° 0 mm 0 mps 622 mmHg 94%
    02:00 +15°C° 0.3 mm 0 mps 621 mmHg 94%
    03:00 +15°C° 0.3 mm 0 mps 621 mmHg 95%
    04:00 +15°C° 0.3 mm 0 mps 621 mmHg 95%
    05:00 +15°C° 0 mm 0 mps 622 mmHg 94%
    06:00 +16°C° 0 mm 0 mps 622 mmHg 93%
    07:00 +17°C° 0 mm 0 mps 623 mmHg 91%
    08:00 +21°C° 0.1 mm 1 mps 623 mmHg 83%
    09:00 +23°C° 0.1 mm 2 mps 624 mmHg 75%
    10:00 +24°C° 0.1 mm 2 mps 624 mmHg 67%
    11:00 +25°C° 0 mm 2 mps 624 mmHg 64%
    12:00 +26°C° 0 mm 2 mps 623 mmHg 60%
    13:00 +25°C° 0 mm 2 mps 623 mmHg 63%
    14:00 +24°C° 0.4 mm 2 mps 622 mmHg 66%
    15:00 +24°C° 0.4 mm 2 mps 622 mmHg 69%
    16:00 +24°C° 0.4 mm 1 mps 621 mmHg 72%
    17:00 +22°C° 1.2 mm 1 mps 621 mmHg 78%
    18:00 +21°C° 1.2 mm 1 mps 621 mmHg 84%
    19:00 +19°C° 1.2 mm 1 mps 621 mmHg 90%
    20:00 +19°C° 0.5 mm 1 mps 621 mmHg 91%
    21:00 +19°C° 0.5 mm 1 mps 622 mmHg 92%
    22:00 +18°C° 0.5 mm 1 mps 622 mmHg 94%
    23:00 +18°C° 0 mm 1 mps 622 mmHg 94%

    Tomorrow, 16 December, Monday

    Time Temperature Precipitation Wind Pressure Humidity
    00:00 +18°C° 0 mm 1 mps 622 mmHg 94%
    01:00 +18°C° 0 mm 1 mps 621 mmHg 94%
    02:00 +17°C° 0.1 mm 2 mps 621 mmHg 94%
    03:00 +17°C° 0.1 mm 2 mps 621 mmHg 94%
    04:00 +16°C° 0.1 mm 2 mps 621 mmHg 94%
    05:00 +17°C° 0.5 mm 2 mps 621 mmHg 94%
    06:00 +17°C° 0.5 mm 2 mps 622 mmHg 94%
    07:00 +17°C° 0.5 mm 2 mps 622 mmHg 95%
    08:00 +17°C° 1.1 mm 2 mps 622 mmHg 94%
    09:00 +17°C° 1.1 mm 3 mps 622 mmHg 93%
    10:00 +17°C° 1.1 mm 3 mps 622 mmHg 93%
    11:00 +20°C° 0 mm 3 mps 622 mmHg 82%
    12:00 +24°C° 0 mm 2 mps 623 mmHg 71%
    13:00 +26°C° 0 mm 2 mps 623 mmHg 59%
    14:00 +26°C° 0.6 mm 1 mps 622 mmHg 64%
    15:00 +25°C° 0.6 mm 1 mps 622 mmHg 69%
    16:00 +25°C° 0.6 mm 1 mps 621 mmHg 73%
    17:00 +23°C° 1.3 mm 1 mps 621 mmHg 79%
    18:00 +21°C° 1.3 mm 1 mps 621 mmHg 84%
    19:00 +19°C° 1.3 mm 1 mps 621 mmHg 90%
    20:00 +19°C° 0.6 mm 1 mps 621 mmHg 91%
    21:00 +19°C° 0.6 mm 1 mps 622 mmHg 93%
    22:00 +18°C° 0.6 mm 1 mps 622 mmHg 95%
    23:00 +18°C° 0.1 mm 1 mps 622 mmHg 95%

    Day after tomorrow, 17 December, Tuesday

    Time Temperature Precipitation Wind Pressure Humidity
    00:00 +16°C° 0.1 mm 0 mps 621 mmHg 96%
    01:00 +16°C° 0.1 mm 0 mps 621 mmHg 97%
    02:00 +16°C° 0.1 mm 0 mps 621 mmHg 97%
    03:00 +15°C° 0.1 mm 0 mps 621 mmHg 96%
    04:00 +15°C° 0.1 mm 0 mps 620 mmHg 96%
    05:00 +16°C° 0 mm 0 mps 621 mmHg 95%
    06:00 +16°C° 0 mm 0 mps 622 mmHg 94%
    07:00 +17°C° 0 mm 0 mps 623 mmHg 93%
    08:00 +20°C° 0.7 mm 1 mps 623 mmHg 89%
    09:00 +22°C° 0.7 mm 1 mps 623 mmHg 85%
    10:00 +23°C° 0.7 mm 2 mps 623 mmHg 81%
    11:00 +23°C° 1.3 mm 2 mps 623 mmHg 80%
    12:00 +23°C° 1.3 mm 2 mps 622 mmHg 79%
    13:00 +24°C° 1.3 mm 2 mps 621 mmHg 78%
    14:00 +24°C° 0.4 mm 2 mps 621 mmHg 74%
    15:00 +24°C° 0.4 mm 2 mps 621 mmHg 70%
    16:00 +25°C° 0.4 mm 1 mps 621 mmHg 67%
    17:00 +23°C° 1.1 mm 1 mps 621 mmHg 73%
    18:00 +21°C° 1.1 mm 1 mps 621 mmHg 80%
    19:00 +19°C° 1.1 mm 1 mps 621 mmHg 86%
    20:00 +19°C° 0.4 mm 1 mps 621 mmHg 88%
    21:00 +18°C° 0.4 mm 1 mps 621 mmHg 91%
    22:00 +18°C° 0.4 mm 1 mps 621 mmHg 93%
    23:00 +16°C° 0.1 mm 1 mps 621 mmHg 93%

    18 December, Wednesday

    Time Temperature Precipitation Wind Pressure Humidity
    00:00 +16°C° 0.1 mm 1 mps 620 mmHg 93%
    01:00 +16°C° 0.1 mm 1 mps 620 mmHg 94%
    02:00 +16°C° 0.3 mm 1 mps 620 mmHg 94%
    03:00 +16°C° 0.3 mm 1 mps 620 mmHg 94%
    04:00 +16°C° 0.3 mm 1 mps 620 mmHg 94%
    05:00 +18°C° 0.4 mm 1 mps 621 mmHg 94%
    06:00 +18°C° 0.4 mm 1 mps 621 mmHg 93%
    07:00 +19°C° 0.4 mm 1 mps 622 mmHg 92%
    08:00 +20°C° 0.7 mm 1 mps 622 mmHg 87%
    09:00 +21°C° 0.7 mm 2 mps 622 mmHg 82%
    10:00 +24°C° 0.7 mm 2 mps 622 mmHg 77%
    11:00 +25°C° 0.2 mm 3 mps 622 mmHg 73%
    12:00 +25°C° 0.2 mm 3 mps 622 mmHg 70%
    13:00 +26°C° 0.2 mm 3 mps 621 mmHg 66%
    14:00 +26°C° 1.4 mm 3 mps 621 mmHg 71%
    15:00 +25°C° 1.4 mm 3 mps 620 mmHg 76%
    16:00 +24°C° 1.4 mm 3 mps 620 mmHg 81%
    17:00 +21°C° 2.4 mm 3 mps 620 mmHg 84%
    18:00 +20°C° 2.4 mm 3 mps 620 mmHg 87%
    19:00 +19°C° 2.4 mm 3 mps 620 mmHg 90%
    20:00 +18°C° 0.8 mm 2 mps 621 mmHg 92%
    21:00 +18°C° 0.8 mm 2 mps 621 mmHg 93%
    22:00 +18°C° 0.8 mm 1 mps 621 mmHg 94%
    23:00 +18°C° 0.5 mm 1 mps 621 mmHg 94%

    19 December, Thursday

    Time Temperature Precipitation Wind Pressure Humidity
    00:00 +18°C° 0.5 mm 1 mps 621 mmHg 95%
    01:00 +18°C° 0.5 mm 1 mps 620 mmHg 95%
    02:00 +18°C° 0.4 mm 1 mps 620 mmHg 95%
    03:00 +16°C° 0.4 mm 1 mps 620 mmHg 95%
    04:00 +16°C° 0.4 mm 1 mps 620 mmHg 95%
    05:00 +18°C° 0.1 mm 1 mps 621 mmHg 94%
    06:00 +19°C° 0.1 mm 1 mps 621 mmHg 93%
    07:00 +19°C° 0.1 mm 1 mps 622 mmHg 92%
    08:00 +21°C° 0.4 mm 1 mps 622 mmHg 86%
    09:00 +21°C° 0.4 mm 2 mps 622 mmHg 81%
    10:00 +24°C° 0.4 mm 2 mps 623 mmHg 75%
    11:00 +25°C° 0.7 mm 2 mps 622 mmHg 71%
    12:00 +25°C° 0.7 mm 2 mps 622 mmHg 68%
    13:00 +26°C° 0.7 mm 2 mps 621 mmHg 64%
    14:00 +26°C° 0.3 mm 2 mps 621 mmHg 66%
    15:00 +25°C° 0.3 mm 2 mps 621 mmHg 67%
    16:00 +25°C° 0.3 mm 2 mps 620 mmHg 69%
    17:00 +23°C° 0.4 mm 2 mps 620 mmHg 76%
    18:00 +20°C° 0.4 mm 2 mps 620 mmHg 83%
    19:00 +18°C° 0.4 mm 2 mps 620 mmHg 89%
    20:00 +18°C° 0 mm 2 mps 620 mmHg 91%
    21:00 +17°C° 0 mm 2 mps 621 mmHg 92%
    22:00 +16°C° 0 mm 2 mps 621 mmHg 93%
    23:00 +16°C° 0 mm 2 mps 621 mmHg 94%

    20 December, Friday

    Time Temperature Precipitation Wind Pressure Humidity
    00:00 +16°C° 0 mm 2 mps 621 mmHg 95%
    01:00 +16°C° 0 mm 1 mps 621 mmHg 96%
    02:00 +16°C° 0 mm 2 mps 621 mmHg 96%
    03:00 +16°C° 0 mm 2 mps 620 mmHg 97%
    04:00 +16°C° 0 mm 2 mps 620 mmHg 97%
    05:00 +16°C° 0 mm 2 mps 621 mmHg 96%
    06:00 +17°C° 0 mm 3 mps 622 mmHg 95%
    07:00 +17°C° 0 mm 3 mps 622 mmHg 94%
    08:00 +19°C° 0.1 mm 2 mps 623 mmHg 88%
    09:00 +21°C° 0.1 mm 2 mps 624 mmHg 82%
    10:00 +24°C° 0.1 mm 2 mps 624 mmHg 76%
    11:00 +25°C° 0.3 mm 2 mps 624 mmHg 70%
    12:00 +26°C° 0.3 mm 1 mps 624 mmHg 63%
    13:00 +28°C° 0.3 mm 1 mps 624 mmHg 56%
    14:00 +27°C° 0.5 mm 1 mps 623 mmHg 61%
    15:00 +26°C° 0.5 mm 2 mps 622 mmHg 67%
    16:00 +24°C° 0.5 mm 2 mps 621 mmHg 72%
    17:00 +23°C° 0.6 mm 1 mps 621 mmHg 78%
    18:00 +21°C° 0.6 mm 1 mps 621 mmHg 84%
    19:00 +19°C° 0.6 mm 1 mps 620 mmHg 90%
    20:00 +18°C° 0.1 mm 1 mps 621 mmHg 91%
    21:00 +18°C° 0.1 mm 1 mps 621 mmHg 92%
    22:00 +16°C° 0.1 mm 2 mps 621 mmHg 93%
    23:00 +16°C° 0 mm 2 mps 621 mmHg 93%
    Show more